Regional Weather Roundup
Issued by NWS Cleveland, OH

Home | Current Version | Previous Version | Graphics & Text | Print | Product List | Glossary On
Versions: 1 2 3 4 5 6 7 8 9 10 11 12 13 14 15 16 17 18 19 20 21 22 23 24 25 26 27 28 29 30 31 32 33 34 35 36 37 38 39 40 41 42 43 44 45 46 47 48 49 50
069
ASUS41 KCLE 260810
RWRCLE
OHIO REGIONAL WEATHER ROUNDUP
NATIONAL WEATHER SERVICE WILMINGTON, OH
400 AM EDT TUE JUL 26 2016

NOTE: "FAIR" INDICATES FEW OR NO CLOUDS BELOW 12,000 FEET WITH NO
SIGNIFICANT WEATHER AND/OR OBSTRUCTIONS TO VISIBILITY.

OHZ001>008-015>018-024>027-034-035-043-044-260900-
   NORTHWEST OHIO

CITY           SKY/WX    TMP DP  RH WIND       PRES   REMARKS
DEFIANCE       FAIR      68  62  81 NW3       30.02S
FINDLAY        FAIR      70  63  78 NW3       30.01S
TOLEDO EXPRESS FAIR      68  66  93 NW5       30.01S
TOLEDO EXEC    FAIR      73  63  70 N7        30.01S
LIMA           FAIR      69  65  86 NW3       30.03S
$$

OHZ009>014-019>023-028>033-038-089-260900-
   NORTHEAST OHIO

CITY           SKY/WX    TMP DP  RH WIND       PRES   REMARKS
CLE-HOPKINS    MOCLDY    71  66  84 W3        30.01R
CLE-LAKEFRONT  FAIR      78  69  73 N12       29.98R
CUY CO. ARPT   NOT AVBL
LORAIN-ELYRIA  FAIR      67  65  93 N3        30.01R
ASHTABULA      FAIR      69  68  96 N6        30.00R
AKRON-CANTON   FAIR      69  65  86 NW7       30.01R
WOOSTER        FAIR      68  65  90 N5        30.02R
MANSFIELD      FAIR      69  65  86 NW5       30.03R
YOUNGSTOWN     MOCLDY    68  65  90 W3        29.99R
$$

OHZ042-051>053-060>062-070>072-077>081-260900-
  SOUTHWEST OHIO

CITY           SKY/WX    TMP DP  RH WIND       PRES   REMARKS
CINC-COVINGTON CLOUDY    76  75  97 CALM      30.02S
CINC-LUNKEN    FAIR      76  76 100 CALM      30.01R
HAMILTON       FAIR      76  71  85 CALM      30.02R
DAYTON         MOCLDY    74  68  81 N6        30.03S
WRIGHT-PAT AFB CLOUDY    76  68  76 N7        30.01S
DAYTON GENERAL FAIR      77  66  68 N6        30.01S
WILMINGTON     FAIR      76  70  82 N5        30.02S
$$

OHZ036-037-039>041-045>050-054>059-063>069-073>076-082>088-260900-
  CENTRAL AND SOUTHEAST OHIO

CITY           SKY/WX    TMP DP  RH WIND       PRES   REMARKS
COLUMBUS       MOCLDY    77  69  76 N6        30.00S
OSU AIRPORT    FAIR      75  69  81 NW6       30.01S
BOLTON FIELD   FAIR      74  70  86 NW5       30.01S
RICKENBACK AFB FAIR      72  71  97 CALM      30.00R FOG
NEWARK         FAIR      71  69  93 CALM      30.00S
MARION         FAIR      71  66  84 NW5       30.02S
LANCASTER      FAIR      71  70  96 CALM      30.01S
ZANESVILLE     FAIR      73  68  84 CALM      30.00R
NEW PHILLY     FAIR      71  66  84 CALM      30.00R
$$




USA.gov is the U.S. government's official web portal to all federal, state and local government web resources and services.